Weather History for Port Aransas, TX

Change the Weather History Date:

Saturday, February 11, 2012

  Actual Average (KCRP) Record (KCRP)
Temperature  
Mean Temperature 52 °F 60 °F  
Max Temperature 55 °F 70 °F 84 °F (2000)
Min Temperature 48 °F 50 °F 24 °F (1899)
Degree Days  
Heating Degree Days 14 7  
Month to date heating degree days 81  
Since 1 July heating degree days 708  
Cooling Degree Days 0 2  
Month to date cooling degree days 15  
Year to date cooling degree days 45  
Growing Degree Days 2 (Base 50)    
Moisture  
Dew Point 42 °F    
Average Humidity 69    
Maximum Humidity 94    
Minimum Humidity 47    
Precipitation  
Precipitation 0.00 in 0.08 in 1.45 in (2010)
Month to date precipitation 0.66  
Year to date precipitation 2.20  
Snow  
Snow 0.00 in - - ()
Month to date snowfall  
Since 1 July snowfall  
Snow Depth -    
Sea Level Pressure  
Sea Level Pressure 30.37 in    
Wind  
Wind Speed 9 mph (NNE)    
Max Wind Speed 23 mph    
Max Gust Speed 26 mph    
Visibility 10 miles    
Events      
T = Trace of Precipitation, MM = Missing Value Source: NWS Daily Summary

Daily Weather History Graph

Daily Weather History Graph

Search for Another Location

Airport:

Trip Planner

Search our weather history database for the weather conditions in past years. The results will help you decide how hot, cold, wet, or windy it might be!

Date:

Astronomy

Feb. 11, 2012 Rise Set
Actual Time 7:09 AM CST 6:16 PM CST
Civil Twilight 6:45 AM CST 6:40 PM CST
Nautical Twilight 6:17 AM CST 7:08 PM CST
Astronomical Twilight 5:49 AM CST 7:35 PM CST
Moon 10:33 PM CST (2/11) 9:21 AM CST (2/11)
Length of Visible Light 11h 55m
Length of Day
11h 07m
Waning Gibbous, 82% of the Moon is Illuminated
Feb 11
Waning Gibbous
Feb 14
Last Quarter
Feb 21
New
Feb 29
First Quarter
Mar 8
Full

Hourly Weather History & Observations

Time (CST) Temp. Dew Point Humidity Pressure Visibility Wind Dir Wind Speed Gust Speed Precip Events Conditions
12:15 AM 53.6 °F 46.4 °F 77% 30.28 in 10.0 mi Calm Calm - N/A   Clear
12:35 AM 55.4 °F 48.2 °F 77% 30.28 in 10.0 mi Calm Calm - N/A   Clear
12:55 AM 53.6 °F 48.2 °F 82% 30.28 in 10.0 mi Calm Calm - N/A   Clear
1:15 AM 53.6 °F 48.2 °F 82% 30.28 in 10.0 mi Calm Calm - N/A   Clear
1:35 AM 51.8 °F 50.0 °F 94% 30.28 in 10.0 mi Calm Calm - N/A   Clear
1:55 AM 51.8 °F 48.2 °F 88% 30.29 in 10.0 mi NNW 5.8 mph - N/A   Clear
2:15 AM 51.8 °F 48.2 °F 88% 30.30 in 10.0 mi Calm Calm - N/A   Clear
2:35 AM 51.8 °F 48.2 °F 88% 30.29 in 10.0 mi North 6.9 mph - N/A   Clear
2:55 AM 51.8 °F 48.2 °F 88% 30.30 in 10.0 mi Calm Calm - N/A   Clear
3:15 AM 50.0 °F 48.2 °F 94% 30.31 in 10.0 mi North 8.1 mph - N/A   Clear
3:35 AM 51.8 °F 46.4 °F 82% 30.30 in 10.0 mi North 9.2 mph - N/A   Clear
3:55 AM 51.8 °F 46.4 °F 82% 30.31 in 10.0 mi North 8.1 mph - N/A   Clear
4:15 AM 51.8 °F 46.4 °F 82% 30.32 in 10.0 mi North 9.2 mph - N/A   Clear
4:35 AM 51.8 °F 44.6 °F 76% 30.32 in 10.0 mi North 10.4 mph - N/A   Clear
4:55 AM 51.8 °F 44.6 °F 76% 30.34 in 10.0 mi North 8.1 mph - N/A   Clear
5:15 AM 51.8 °F 44.6 °F 76% 30.34 in 10.0 mi North 9.2 mph - N/A   Clear
5:35 AM 51.8 °F 44.6 °F 76% 30.34 in 10.0 mi North 15.0 mph - N/A   Clear
5:55 AM 51.8 °F 44.6 °F 76% 30.35 in 10.0 mi North 16.1 mph - N/A   Clear
6:15 AM 50.0 °F 44.6 °F 82% 30.35 in 10.0 mi NNE 10.4 mph - N/A   Clear
6:35 AM 50.0 °F 44.6 °F 82% 30.36 in 10.0 mi NNE 16.1 mph - N/A   Clear
6:55 AM 48.2 °F 44.6 °F 87% 30.37 in 10.0 mi NNE 10.4 mph - N/A   Clear
7:15 AM 48.2 °F 42.8 °F 82% 30.38 in 10.0 mi NNE 12.7 mph 19.6 mph N/A   Clear
7:35 AM 48.2 °F 41.0 °F 76% 30.37 in 10.0 mi NNE 18.4 mph - N/A   Clear
7:55 AM 48.2 °F 39.2 °F 71% 30.38 in 10.0 mi NNE 18.4 mph - N/A   Clear
8:15 AM 48.2 °F 41.0 °F 76% 30.40 in 10.0 mi North 13.8 mph - N/A   Clear
8:35 AM 50.0 °F 42.8 °F 76% 30.41 in 10.0 mi NNE 18.4 mph - N/A   Clear
8:55 AM 48.2 °F 39.2 °F 71% 30.41 in 10.0 mi NNE 19.6 mph - N/A   Clear
9:15 AM 48.2 °F 39.2 °F 71% 30.42 in 10.0 mi NNE 18.4 mph - N/A   Clear
9:35 AM 48.2 °F 37.4 °F 66% 30.43 in 10.0 mi NNE 23.0 mph 26.5 mph N/A   Clear
9:55 AM 48.2 °F 39.2 °F 71% 30.44 in 10.0 mi NNE 16.1 mph 21.9 mph N/A   Clear
10:15 AM 50.0 °F 39.2 °F 66% 30.44 in 10.0 mi NNE 20.7 mph - N/A   Clear
10:35 AM 50.0 °F 39.2 °F 66% 30.45 in 10.0 mi NNE 18.4 mph - N/A   Partly Cloudy
10:55 AM 50.0 °F 39.2 °F 66% 30.46 in 10.0 mi North 17.3 mph - N/A   Clear
11:15 AM 51.8 °F 37.4 °F 58% 30.45 in 10.0 mi NNE 17.3 mph - N/A   Clear
11:35 AM 51.8 °F 39.2 °F 62% 30.45 in 10.0 mi NNE 15.0 mph 24.2 mph N/A   Clear
11:55 AM 51.8 °F 39.2 °F 62% 30.44 in 10.0 mi NNE 17.3 mph - N/A   Clear
12:15 PM 53.6 °F 39.2 °F 58% 30.44 in 10.0 mi NNE 15.0 mph 21.9 mph N/A   Partly Cloudy
12:35 PM 53.6 °F 39.2 °F 58% 30.44 in 10.0 mi NNE 12.7 mph - N/A   Clear
12:55 PM 53.6 °F 39.2 °F 58% 30.43 in 10.0 mi North 15.0 mph - N/A   Clear
1:15 PM 55.4 °F 37.4 °F 51% 30.43 in 10.0 mi NNE 13.8 mph - N/A   Clear
1:35 PM 55.4 °F 37.4 °F 51% 30.42 in 10.0 mi NNE 12.7 mph - N/A   Clear
1:55 PM 55.4 °F 37.4 °F 51% 30.41 in 10.0 mi NE 13.8 mph 20.7 mph N/A   Clear
2:15 PM 53.6 °F 37.4 °F 54% 30.40 in 10.0 mi NE 16.1 mph - N/A   Clear
2:35 PM 55.4 °F 37.4 °F 51% 30.40 in 10.0 mi NE 15.0 mph 20.7 mph N/A   Clear
2:55 PM 55.4 °F 37.4 °F 51% 30.40 in 10.0 mi NE 15.0 mph - N/A   Clear
3:15 PM 55.4 °F 37.4 °F 51% 30.40 in 10.0 mi NNE 15.0 mph - N/A   Clear
3:35 PM 55.4 °F 35.6 °F 47% 30.39 in 10.0 mi NE 15.0 mph - N/A   Clear
3:55 PM 55.4 °F 37.4 °F 51% 30.39 in 10.0 mi NE 16.1 mph - N/A   Clear
4:15 PM 55.4 °F 37.4 °F 51% 30.40 in 10.0 mi NE 15.0 mph - N/A   Clear
4:35 PM 55.4 °F 37.4 °F 51% 30.41 in 10.0 mi NNE 13.8 mph - N/A   Clear
4:55 PM 55.4 °F 37.4 °F 51% 30.40 in 10.0 mi NE 10.4 mph - N/A   Clear
5:15 PM 55.4 °F 37.4 °F 51% 30.40 in 10.0 mi NE 15.0 mph - N/A   Clear
5:35 PM 53.6 °F 35.6 °F 51% 30.40 in 10.0 mi NE 13.8 mph 20.7 mph N/A   Clear
5:55 PM 53.6 °F 37.4 °F 54% 30.40 in 10.0 mi NNE 13.8 mph - N/A   Clear
6:15 PM 53.6 °F 37.4 °F 54% 30.41 in 10.0 mi NNE 13.8 mph 17.3 mph N/A   Clear
6:35 PM 53.6 °F 37.4 °F 54% 30.42 in 10.0 mi NNE 16.1 mph - N/A   Clear
6:55 PM 53.6 °F 37.4 °F 54% 30.43 in 10.0 mi NNE 15.0 mph - N/A   Clear
7:15 PM 51.8 °F 37.4 °F 58% 30.45 in 10.0 mi NNE 12.7 mph - N/A   Clear
7:35 PM 51.8 °F 37.4 °F 58% 30.45 in 10.0 mi NNE 13.8 mph - N/A   Clear
7:55 PM 51.8 °F 37.4 °F 58% 30.46 in 10.0 mi NNE 12.7 mph - N/A   Clear
8:15 PM 51.8 °F 37.4 °F 58% 30.47 in 10.0 mi NNE 11.5 mph - N/A   Clear
8:35 PM 51.8 °F 35.6 °F 54% 30.48 in 10.0 mi NNE 13.8 mph - N/A   Clear
8:55 PM 51.8 °F 35.6 °F 54% 30.49 in 10.0 mi NNE 15.0 mph - N/A   Clear
9:15 PM 51.8 °F 35.6 °F 54% 30.49 in 10.0 mi NNE 13.8 mph - N/A   Clear
9:35 PM 51.8 °F 35.6 °F 54% 30.48 in 10.0 mi NNE 13.8 mph - N/A   Clear
9:55 PM 51.8 °F 35.6 °F 54% 30.48 in 10.0 mi NNE 13.8 mph - N/A   Clear
10:15 PM 51.8 °F 35.6 °F 54% 30.46 in 10.0 mi NE 12.7 mph - N/A   Clear
10:35 PM 51.8 °F 33.8 °F 50% 30.45 in 10.0 mi NNE 16.1 mph - N/A   Clear
10:55 PM 51.8 °F 35.6 °F 54% 30.44 in 10.0 mi NE 17.3 mph 20.7 mph N/A   Clear
11:15 PM 51.8 °F 35.6 °F 54% 30.46 in 10.0 mi NE 12.7 mph - N/A   Clear
11:35 PM 51.8 °F 35.6 °F 54% 30.48 in 10.0 mi NNE 12.7 mph - N/A   Partly Cloudy
11:55 PM 50.0 °F 33.8 °F 54% 30.48 in 10.0 mi NNE 13.8 mph - N/A   Mostly Cloudy